Flag for Germany Weather past 2 weeks in Gelsenkirchen, North Rhine-Westphalia, Germany

Now
48 °F

Fog.


Feels Like: 48 °F
Forecast: 49 / 67 °F
Wind: 2 mph from Southwest

Location: Duesseldorf

Current Time: Aug 21, 2014 at 3:24:32 AM

Latest Report: Aug 21, 2014 at 3:00 AM


Visibility: 9 mi

Pressure: 30.03 "Hg

Humidity: 96%

Dew point: 47 °F

Location of GelsenkirchenLocation

Historic Weather in Gelsenkirchen — Graph

°F

Gelsenkirchen temperature yesterday

Maximum temperature yesterday: 65 °F (at 4:00 PM)
Minimum temperature yesterday: 45 °F (at 7:00 AM)
Average temperature yesterday: 55 °F

Past Weeks' High & Low Weather Summary

 TemperatureHumidityPressure
High77 °F (Aug 8, 1:00 PM)95% (Aug 21, 1:00 AM)30.10 "Hg (Aug 21, 1:00 AM)
Low45 °F (Aug 20, 7:00 AM)44% (Aug 6, 3:00 PM)29.57 "Hg (Aug 10, 7:00 PM)
Average62 °F76%29.87 "Hg
* Reported Aug 6 2:00 AM — Aug 21 2:00 AM, Gelsenkirchen, Weather by CustomWeather, © 2014

Note: Actual official high and low records may vary slightly from our data, if they occured in-between our weather recording intervals... More about our weather records

Advertising

Gelsenkirchen weather history for previous 24 hours

 ConditionsComfort  
Time TempWeatherWind HumidityBarometerVisibility
2:00 AM
Aug 21
48 °FFog.1 mph95%30.03 "Hg12 mi
1:00 AM49 °FFog.1 mph95%30.03 "Hg16 mi
12:00 AM51 °FPassing clouds.1 mph93%30.03 "Hg19 mi
10:00 PM
Aug 20
53 °FOvercast.3 mph86%30.03 "Hg22 mi
9:00 PM53 °FOvercast.1 mph87%30.02 "Hg12 mi
8:00 PM53 °FSprinkles. Overcast.3 mph89%30.01 "Hg12 mi
7:00 PM56 °FLight rain. Overcast.6 mph75%30.00 "Hg11 mi
6:00 PM65 °FScattered clouds.5 mph46%29.97 "Hg31 mi
4:00 PM65 °FScattered clouds.5 mph44%29.99 "Hg31 mi
3:00 PM64 °FScattered clouds.5 mph47%30.00 "Hg31 mi
2:00 PM65 °FScattered clouds.3 mph46%30.00 "Hg31 mi
1:00 PM64 °FScattered clouds.5 mph52%30.01 "Hg28 mi
12:00 PM62 °FPassing clouds.3 mph59%30.02 "Hg25 mi
11:00 AM59 °FPassing clouds.3 mph67%30.03 "Hg22 mi
10:00 AM56 °FSunny.2 mph72%30.02 "Hg22 mi
9:00 AM52 °FPassing clouds.5 mph79%30.02 "Hg22 mi
8:00 AM50 °FPassing clouds.5 mph85%30.01 "Hg22 mi
7:00 AM45 °FPassing clouds.5 mph89%30.00 "Hg19 mi
6:00 AM46 °FPassing clouds.3 mph89%29.99 "Hg19 mi
4:00 AM46 °FPassing clouds.3 mph89%29.98 "Hg25 mi
3:00 AM46 °FPassing clouds.3 mph87%29.98 "Hg25 mi
Weather by CustomWeather, © 2014

See weather overviewHow to use our weather pages